[[{"header":{"parameterUnit":"m.s-1","parameterCategory":1,"la1":30.2992,"la2":30.254,"lo1":-89.0895,"lo2":-89.0443,"dy":0.0025,"dx":0.0025,"nx":19,"ny":19,"refTime":"2026-04-15T21:00:00:Z","depth":0,"parameterNumber":2,"parameterNumberName":"U-component_of_WINDS"},"data":[0,0,0,-2.6913,-2.6914,-2.6988,-2.6989,-2.7091,-2.7092,0,0,0,0,0,0,0,0,0,0,0,-2.6895,-2.6895,-2.6913,-2.6915,-2.6988,-2.6989,-2.7091,-2.7092,0,0,0,0,0,0,0,0,0,0,0,-2.6894,-2.6895,-2.6896,-2.6915,-2.6988,-2.6989,-2.709,-2.7032,0,0,0,0,0,0,0,0,0,0,-2.6959,-2.6946,-2.6895,-2.6896,-2.6915,-2.6988,-2.6989,-2.7029,-2.7036,-2.706,0,-2.7082,0,-2.7089,-2.7099,-2.7099,0,0,0,-2.6912,-2.694,-2.6957,-2.6896,-2.6916,-2.6988,-2.6954,-2.7033,-2.704,-2.7069,-2.7084,-2.7087,-2.709,-2.71,-2.71,-2.7249,-2.725,0,0,-2.6908,-2.691,-2.6952,-2.6962,-2.695,-2.6952,-2.6957,-2.7037,-2.7054,-2.7084,-2.709,-2.7092,-2.71,-2.7101,-2.7248,-2.7249,0,0,0,-2.6898,-2.6907,-2.6922,-2.6958,-2.697,-2.6954,-2.696,-2.705,-2.7054,-2.7091,-2.7093,-2.7101,-2.7102,-2.7247,-2.7248,-2.7289,0,0,0,-2.6895,-2.6901,-2.692,-2.6922,-2.6969,-2.7011,-2.6971,-2.7049,-2.7058,-2.7093,-2.7101,-2.7103,-2.7246,-2.7248,-2.7286,-2.7308,0,0,0,-2.6888,-2.69,-2.6912,-2.6922,-2.6954,-2.701,-2.7019,-2.7051,-2.706,-2.7099,-2.7104,-2.7246,-2.7247,-2.7284,-2.7304,-2.7347,0,0,0,-2.6882,-2.6948,-2.6913,-2.6989,-2.6953,-2.7035,-2.7018,-2.7079,-2.7118,-2.7102,-2.7246,-2.7248,-2.7283,-2.7301,-2.7344,-2.7383,-2.74,0,0,-2.6967,-2.6959,-2.7003,-2.6974,-2.7062,-2.7023,-2.7118,-2.7152,-2.7155,-2.7218,-2.7221,-2.7287,-2.7303,-2.7347,-2.7495,-2.7508,0,0,0,-2.703,-2.7062,-2.7085,-2.7122,-2.715,-2.7176,-2.7195,-2.7208,-2.7262,-2.7187,-2.7316,-2.7325,-2.735,-2.7369,-2.738,-2.7401,-2.7257,-2.7257,-2.7257,-2.7152,-2.7152,-2.7225,-2.7234,-2.7271,-2.7291,-2.732,-2.7341,-2.7331,-2.7361,-2.7379,-2.7469,-2.7491,-2.7499,-2.7522,-2.7401,-2.7401,-2.7401,-2.7401,-2.7276,-2.732,-2.7305,-2.737,-2.737,-2.7426,-2.7449,-2.7439,-2.7491,-2.7455,-2.7478,-2.7437,-2.7514,-2.7533,-2.7404,-2.7404,-2.7404,-2.7403,-2.7403,-2.7354,-2.7375,-2.739,-2.7444,-2.7486,-2.7494,-2.7545,-2.7543,-2.7542,-2.7564,-2.7583,-2.7582,-2.758,-2.7574,-2.7574,-2.7574,-2.7575,-2.7575,-2.7575,-2.7429,-2.7444,-2.7487,-2.7523,-2.7547,-2.7578,-2.7601,-2.7625,-2.7651,-2.7646,-2.7646,-2.7632,-2.7522,-2.7493,-2.758,-2.7579,-2.7578,-2.7578,-2.7578,-2.7552,-2.7524,-2.7589,-2.7613,-2.7656,-2.7698,-2.7696,-2.7745,-2.7765,-2.779,-2.7773,-2.7692,-2.7683,-2.7674,-2.765,-2.7772,-2.7772,-2.7772,-2.7772,-2.7617,-2.7613,-2.7679,-2.7718,-2.7756,-2.7761,-2.7836,-2.7855,-2.787,-2.7882,-2.7865,-2.7834,-2.7825,-2.7822,-2.781,-2.7788,-2.7942,-2.7942,-2.7942,-2.7692,-2.7691,-2.7754,-2.7768,-2.7802,-2.7831,-2.7901,-2.7947,-2.7959,-2.7949,-2.7892,-2.7885,-2.7835,-2.7819,-2.7805,-2.7787,-2.7746,0,0]},{"header":{"parameterUnit":"m.s-1","parameterCategory":1,"la1":30.2992,"la2":30.254,"lo1":-89.0895,"lo2":-89.0443,"dy":0.0025,"dx":0.0025,"nx":19,"ny":19,"refTime":"2026-04-15T21:00:00:Z","depth":0,"parameterNumber":3,"parameterNumberName":"V-component_of_WINDS"},"data":[0,0,0,3.9436,3.9435,3.9411,3.941,3.9381,3.9381,0,0,0,0,0,0,0,0,0,0,0,3.9445,3.9445,3.9436,3.9435,3.9411,3.941,3.9381,3.9381,0,0,0,0,0,0,0,0,0,0,0,3.9445,3.9445,3.9445,3.9435,3.9411,3.941,3.9381,3.9399,0,0,0,0,0,0,0,0,0,0,3.9422,3.9433,3.9445,3.9445,3.9435,3.9411,3.941,3.9399,3.9398,3.9393,0,3.9391,0,3.9386,3.9379,3.9379,0,0,0,3.9433,3.9435,3.9427,3.9445,3.9435,3.9411,3.9421,3.9398,3.9396,3.9391,3.9391,3.939,3.9385,3.9379,3.9379,3.9366,3.9366,0,0,3.9435,3.9442,3.9428,3.9425,3.9431,3.9422,3.942,3.9397,3.9397,3.9391,3.9389,3.9385,3.9379,3.9378,3.9366,3.9366,0,0,0,3.944,3.9443,3.9435,3.9427,3.9422,3.9421,3.942,3.9398,3.9395,3.9389,3.9384,3.9378,3.9378,3.9366,3.9366,3.9376,0,0,0,3.9441,3.9446,3.9436,3.944,3.9423,3.941,3.9421,3.9396,3.9394,3.9385,3.9378,3.9378,3.9366,3.9366,3.9376,3.9378,0,0,0,3.9446,3.9446,3.9444,3.944,3.943,3.941,3.9406,3.9396,3.9391,3.9379,3.9378,3.9366,3.9366,3.9375,3.9378,3.9378,0,0,0,3.9454,3.9451,3.9444,3.944,3.943,3.9417,3.9406,3.9395,3.9386,3.9378,3.9366,3.9366,3.9375,3.9378,3.9377,3.9378,3.938,0,0,3.9454,3.9452,3.9449,3.9442,3.9432,3.942,3.9412,3.9395,3.9387,3.9373,3.9373,3.9376,3.9378,3.9378,3.9386,3.9387,0,0,0,3.9451,3.9449,3.9445,3.9438,3.9427,3.9418,3.9403,3.9397,3.9386,3.9382,3.9376,3.9377,3.9376,3.9376,3.9377,3.9376,3.9367,3.9367,3.9367,3.9461,3.9453,3.9447,3.9437,3.943,3.9416,3.9409,3.9399,3.939,3.939,3.9385,3.9391,3.9392,3.9392,3.9392,3.9385,3.9386,3.9386,3.9386,3.9461,3.9457,3.9449,3.9441,3.9432,3.9425,3.9412,3.9407,3.9399,3.9393,3.9393,3.9387,3.9394,3.9393,3.9386,3.9386,3.9386,3.9386,3.9386,3.9465,3.9462,3.9457,3.9447,3.9441,3.943,3.9423,3.9415,3.9407,3.9406,3.9401,3.94,3.9399,3.9405,3.9405,3.9405,3.9405,3.9405,3.9405,3.9472,3.9466,3.9462,3.9453,3.9448,3.9441,3.9429,3.9424,3.9416,3.941,3.941,3.9402,3.9397,3.9395,3.9405,3.9405,3.9405,3.9405,3.9405,3.9473,3.9472,3.9466,3.9462,3.9451,3.9445,3.9436,3.9427,3.9422,3.9419,3.9412,3.941,3.9406,3.9405,3.9403,3.9414,3.9414,3.9414,3.9414,3.9476,3.9475,3.9467,3.9461,3.9454,3.9446,3.944,3.9431,3.9422,3.9418,3.9416,3.9414,3.9413,3.9409,3.9408,3.9406,3.9418,3.9418,3.9418,3.9477,3.9474,3.947,3.9463,3.9454,3.9447,3.9441,3.9434,3.9423,3.9418,3.9415,3.9415,3.9411,3.9411,3.9403,3.9402,3.9399,0,0]}]]